Wind_Speed
12 11 11 10 9 9 9 9 9 9 9 9 9 9 9 10 10 11 11 11 11 11 11 11 10 10 10 10 10 10 11 10 10 10 10 10 10 10 10 9 9 10 10
12 12 11 10 9 9 9 9 9 9 10 10 10 9 9 10 10 10 10 11 11 11 10 10 10 10 10 10 11 11 11 11 11 11 11 10 10 10 11 10 10 10 10
12 12 11 10 10 9 9 9 8 9 10 10 10 10 10 10 10 10 10 11 11 11 10 10 10 10 10 11 11 12 12 12 12 12 11 11 10 10 10 11 12 12 11
12 12 11 11 10 10 9 9 9 10 10 11 11 11 11 11 10 10 11 11 11 11 11 11 11 11 11 11 12 12 12 12 11 11 11 11 11 10 11 11 12 12 13
12 12 12 11 10 10 10 10 11 11 11 11 11 11 11 12 11 11 11 12 12 12 12 12 12 12 12 12 12 12 12 12 12 12 12 12 11 11 11 12 12 12 13
12 12 11 11 10 10 10 10 11 11 11 11 11 11 12 12 12 12 12 12 13 13 13 13 14 14 14 14 14 14 14 12 12 13 13 13 13 13 13 13 13 14 13
12 12 12 11 11 10 10 11 11 11 11 11 12 12 12 13 13 13 13 12 12 13 13 13 13 13 13 14 15 14 14 14 14 14 15 15 14 15 14 14 14 14 14
12 11 11 11 11 11 11 12 12 13 13 13 13 13 12 12 13 13 13 13 12 12 12 13 13 13 14 15 15 15 15 15 15 15 15 15 15 15 16 16 15 15 15
12 12 11 12 11 11 12 12 13 13 13 14 13 13 12 13 13 13 13 13 14 14 14 14 15 15 15 15 16 16 16 16 15 15 15 16 16 16 16 16 17 16 16
12 12 12 12 12 13 13 13 13 13 13 14 14 14 14 13 14 14 14 15 15 16 16 17 17 16 16 16 17 16 16 16 16 16 16 17 17 17 17 17 17 17 17
13 13 14 13 14 14 14 13 13 13 14 15 15 15 15 15 15 15 15 16 17 17 17 17 18 18 17 17 17 17 17 17 17 17 17 17 18 18 18 18 18 18 18
14 14 15 14 15 15 14 14 14 14 15 15 16 16 16 16 16 17 17 17 18 18 18 18 19 19 19 19 19 19 19 19 19 18 18 18 19 19 19 19 19 19 19
14 15 16 16 16 16 16 16 16 16 16 17 17 17 18 18 18 18 19 19 19 19 19 20 20 20 20 20 20 20 20 20 20 19 19 20 20 20 20 20 20 20 20
15 15 16 17 17 17 17 17 17 17 17 18 18 19 19 19 19 20 20 20 20 20 21 21 21 21 21 21 21 21 21 21 22 21 21 21 21 22 22 21 21 21 21
17 17 17 18 18 18 18 18 18 18 19 19 19 19 19 20 21 22 22 22 22 22 22 22 22 22 22 22 22 22 23 23 23 22 23 23 23 23 23 23 22 22 22
18 19 18 18 19 19 20 20 19 19 19 19 20 20 21 22 23 23 23 24 24 24 23 23 23 23 23 24 24 24 24 24 24 24 24 24 24 24 25 25 24 24 23
20 20 20 20 20 20 21 20 20 20 20 20 21 21 22 23 24 24 25 25 25 25 25 25 25 25 25 25 26 26 26 26 26 26 26 26 26 27 27 26 26 25 24
21 21 21 21 21 21 21 21 21 22 22 22 22 22 23 23 24 24 25 26 26 27 27 27 27 27 27 27 26 27 27 27 28 28 28 28 28 28 28 28 28 27 26
22 22 22 22 21 21 21 21 21 22 23 23 23 24 24 25 25 25 26 27 27 28 28 28 28 29 29 29 28 28 28 28 29 29 29 29 29 29 30 29 28 28 28
23 23 22 22 21 21 22 22 22 23 23 24 24 25 26 27 27 27 27 28 29 29 30 30 30 30 30 30 29 29 29 29 29 30 30 29 29 29 29 29 29 28 28
23 23 22 22 22 22 22 23 23 24 25 25 26 26 26 27 27 28 28 28 29 30 30 30 30 30 30 30 30 30 30 30 30 31 30 29 29 29 29 28 28 29 28
23 23 23 23 23 23 24 24 25 25 26 27 27 27 27 27 28 28 28 28 29 29 29 30 29 30 30 31 30 30 31 31 30 31 30 30 30 30 30 29 29 28 28
24 24 24 25 25 25 26 26 26 27 27 27 27 27 27 27 28 28 28 28 28 29 30 30 30 30 30 31 31 30 30 31 31 31 31 31 31 30 30 30 30 30 29
25 25 25 26 26 26 27 27 27 27 28 28 28 28 28 28 28 29 29 29 29 29 30 30 30 31 31 31 31 31 31 31 31 31 32 31 31 30 30 30 30 30 30
25 26 26 26 27 27 27 28 29 29 29 29 28 28 29 29 29 29 29 29 29 30 30 31 31 32 32 32 32 32 32 32 31 31 32 32 31 31 31 31 31 32 32
25 26 26 27 28 28 29 29 30 30 29 29 29 28 28 29 29 30 30 30 30 31 31 32 32 32 33 33 34 34 33 33 33 32 32 32 32 32 31 31 31 32 32
Wind_Direction
293 293 290 286 281 276 272 268 261 257 258 255 255 261 263 267 269 267 265 264 265 268 269 272 277 281 283 283 281 273 268 265 264 263 264 266 267 265 267 269 259 258 260
290 292 289 286 280 273 273 272 266 259 258 258 259 260 264 267 268 268 264 265 267 269 271 274 275 278 282 285 284 281 274 267 266 264 259 262 265 266 267 270 272 271 269
289 288 286 283 281 275 272 271 270 263 260 261 264 268 268 270 273 271 267 266 269 270 272 274 276 278 280 285 285 283 277 275 272 269 268 268 269 271 273 276 278 279 280
288 286 282 280 281 279 275 274 276 271 267 266 266 267 267 270 274 274 275 271 269 269 270 273 274 279 281 283 283 281 278 279 275 273 271 270 271 273 274 275 276 278 278
291 288 284 278 278 279 277 277 282 276 273 271 269 268 270 271 273 273 273 272 271 270 270 273 278 283 284 287 286 284 284 280 276 275 275 274 274 274 276 277 276 278 279
288 286 284 278 277 280 280 278 280 281 275 270 270 270 272 273 273 271 271 271 271 271 271 276 280 283 284 285 288 286 282 280 275 275 275 274 274 276 278 280 281 279 281
286 285 283 282 279 279 281 281 280 282 279 277 274 273 275 274 273 273 272 272 272 275 274 276 279 280 284 285 286 285 283 280 279 279 277 272 270 272 275 279 281 280 280
284 282 282 280 277 277 278 280 281 279 275 276 276 275 273 272 273 273 274 275 276 276 276 276 279 283 285 284 285 285 285 281 280 281 279 272 269 270 273 276 278 279 279
280 278 277 278 277 279 279 279 279 276 274 275 274 273 273 270 269 270 272 274 275 275 276 276 278 281 282 285 286 287 285 282 279 279 280 274 272 272 273 273 275 277 279
278 275 276 278 278 280 282 284 279 277 275 276 275 272 273 272 270 271 272 272 272 273 274 275 277 278 279 283 285 287 286 283 280 278 280 277 274 274 273 273 274 276 276
277 276 276 277 278 278 280 283 282 278 277 276 274 274 274 272 271 271 272 273 275 275 274 275 275 276 278 280 282 284 285 284 283 280 278 277 277 275 276 276 275 274 274
278 278 277 276 280 280 278 280 281 281 279 277 275 274 274 274 273 272 272 272 274 275 277 277 277 277 277 278 279 282 284 283 284 280 278 279 279 278 278 279 277 274 273
278 280 278 276 279 281 279 280 279 278 277 278 276 274 274 275 274 275 274 273 273 275 276 277 277 278 277 277 278 279 283 284 282 280 278 279 279 278 279 281 278 274 272
280 281 281 280 280 282 281 280 279 277 276 276 276 275 274 275 275 275 276 275 275 275 276 276 276 278 278 278 278 278 280 284 282 281 280 278 277 277 277 277 277 275 273
280 282 284 283 282 284 282 280 279 278 277 276 276 277 276 275 275 276 277 277 277 277 276 277 277 277 278 278 277 278 279 280 280 281 282 281 280 279 278 277 278 277 275
279 281 283 284 284 284 284 282 279 278 277 278 277 277 277 277 276 277 277 276 277 277 276 277 278 277 277 276 276 278 278 279 278 279 279 279 278 278 278 278 278 277 277
279 281 282 283 284 284 283 283 280 280 279 278 279 280 280 280 279 277 277 276 276 276 275 275 276 277 276 276 276 277 278 278 279 279 277 277 278 278 277 276 277 276 275
279 281 281 283 283 283 283 283 281 281 281 280 280 280 280 281 281 279 277 275 274 275 275 275 276 277 277 277 277 278 278 277 277 278 279 278 277 277 276 277 277 278 277
278 279 280 282 282 282 283 283 283 283 283 283 283 282 282 281 281 281 279 276 274 273 274 275 275 276 277 277 277 277 278 278 278 278 279 278 277 277 276 277 277 278 277
277 278 281 283 283 282 283 283 283 284 284 285 285 285 283 283 282 281 280 277 276 274 274 274 275 275 276 276 276 276 277 278 278 277 277 278 278 277 277 276 275 276 275
278 278 280 281 282 283 283 284 284 284 285 286 287 286 285 284 284 282 280 277 277 276 275 275 275 275 276 276 277 277 277 277 276 278 279 278 277 276 275 275 275 274 273
278 278 279 281 282 283 284 285 286 285 286 286 287 288 287 286 285 284 282 279 278 277 276 276 276 276 276 277 277 278 278 278 278 278 279 278 276 274 273 273 274 274 273
279 279 280 281 282 283 283 285 285 286 287 287 288 288 287 287 286 285 283 281 280 279 277 278 277 277 277 277 278 278 278 278 278 278 278 278 277 275 273 273 273 272 272
278 279 279 280 281 282 283 284 284 285 287 287 287 287 287 287 286 286 284 283 282 281 280 279 278 278 278 279 279 279 279 278 278 277 277 276 276 274 272 272 271 270 270
278 279 279 280 281 281 282 282 284 285 286 287 288 287 287 287 286 285 284 283 282 282 281 280 280 280 279 280 279 279 278 278 278 277 277 276 275 273 272 271 270 270 268
278 279 280 281 282 281 281 282 282 284 285 286 287 287 287 287 286 285 285 283 282 282 282 281 280 280 280 279 279 278 278 278 278 278 277 276 274 272 271 269 269 268 267
Height
5850 5849 5849 5848 5847 5847 5847 5847 5848 5849 5849 5850 5851 5852 5852 5853 5854 5854 5855 5855 5856 5856 5857 5857 5858 5858 5858 5858 5859 5859 5860 5860 5861 5861 5862 5862 5862 5863 5863 5863 5864 5864 5865
5848 5847 5846 5846 5845 5845 5845 5846 5846 5847 5847 5848 5849 5850 5850 5851 5852 5852 5853 5853 5854 5854 5855 5855 5856 5856 5856 5857 5857 5857 5857 5858 5859 5859 5859 5860 5860 5860 5861 5861 5861 5862 5862
5845 5844 5844 5844 5844 5843 5843 5844 5844 5845 5846 5846 5847 5848 5848 5849 5850 5850 5851 5851 5852 5852 5853 5853 5854 5854 5854 5854 5854 5855 5855 5855 5856 5856 5856 5857 5857 5858 5858 5859 5859 5859 5860
5842 5842 5842 5842 5842 5842 5842 5842 5843 5843 5844 5844 5845 5846 5846 5847 5847 5848 5848 5849 5849 5850 5851 5851 5851 5852 5852 5852 5852 5852 5852 5853 5853 5853 5854 5854 5855 5856 5856 5856 5857 5857 5857
5840 5839 5839 5839 5839 5840 5840 5840 5840 5841 5841 5842 5843 5844 5844 5845 5845 5845 5846 5847 5847 5848 5848 5848 5849 5849 5850 5850 5850 5850 5850 5850 5850 5851 5851 5852 5852 5853 5853 5853 5853 5854 5854
5837 5837 5837 5837 5837 5837 5837 5838 5838 5838 5839 5840 5840 5841 5842 5842 5843 5843 5843 5844 5844 5845 5846 5846 5846 5847 5847 5847 5847 5847 5847 5847 5848 5848 5848 5849 5849 5850 5850 5850 5850 5850 5850
5835 5835 5834 5835 5835 5835 5835 5835 5835 5835 5836 5837 5838 5838 5839 5839 5840 5840 5840 5841 5842 5842 5843 5843 5843 5844 5844 5844 5844 5844 5844 5844 5844 5844 5845 5845 5845 5846 5846 5846 5846 5846 5847
5832 5832 5832 5832 5832 5832 5832 5832 5832 5833 5833 5834 5835 5835 5836 5837 5837 5838 5838 5838 5839 5839 5840 5840 5840 5841 5841 5841 5840 5840 5840 5840 5841 5841 5841 5841 5841 5842 5842 5842 5843 5842 5843
5829 5829 5829 5829 5829 5829 5829 5829 5829 5830 5830 5831 5831 5832 5833 5834 5834 5835 5835 5835 5836 5836 5836 5837 5837 5837 5837 5837 5837 5837 5837 5837 5837 5837 5837 5837 5837 5838 5838 5838 5838 5838 5838
5826 5826 5826 5826 5826 5826 5826 5826 5826 5826 5827 5828 5828 5829 5830 5830 5831 5831 5832 5832 5832 5833 5833 5833 5833 5833 5833 5833 5833 5833 5833 5832 5832 5832 5832 5832 5833 5833 5833 5833 5833 5834 5834
5823 5823 5823 5823 5823 5823 5823 5823 5823 5823 5824 5824 5825 5825 5826 5826 5827 5828 5828 5828 5829 5829 5829 5829 5829 5829 5829 5829 5829 5829 5828 5828 5828 5828 5827 5827 5828 5828 5828 5828 5828 5828 5829
5820 5820 5820 5820 5820 5820 5820 5820 5820 5820 5820 5820 5821 5821 5822 5822 5823 5823 5824 5824 5824 5824 5824 5824 5825 5825 5825 5824 5824 5824 5824 5823 5823 5823 5823 5823 5822 5822 5822 5823 5823 5823 5823
5816 5816 5816 5816 5817 5816 5816 5816 5816 5816 5816 5817 5817 5817 5818 5818 5818 5818 5819 5819 5820 5820 5820 5820 5820 5820 5820 5819 5819 5819 5819 5818 5818 5818 5818 5817 5817 5817 5816 5817 5817 5817 5817
5813 5813 5812 5812 5812 5812 5812 5812 5812 5812 5812 5812 5813 5813 5813 5813 5813 5813 5814 5814 5814 5815 5815 5815 5815 5814 5814 5814 5814 5814 5813 5813 5813 5812 5812 5812 5811 5811 5811 5811 5811 5811 5811
5809 5808 5808 5808 5808 5808 5808 5808 5807 5807 5808 5808 5808 5808 5808 5808 5808 5808 5808 5809 5809 5809 5810 5809 5809 5809 5809 5808 5808 5808 5807 5807 5807 5806 5805 5805 5805 5805 5805 5805 5804 5804 5804
5804 5804 5804 5804 5804 5803 5803 5802 5802 5802 5802 5803 5803 5803 5803 5802 5802 5802 5802 5802 5803 5803 5803 5803 5803 5802 5802 5802 5802 5801 5801 5800 5800 5800 5799 5799 5798 5798 5798 5798 5798 5798 5798
5799 5799 5799 5799 5799 5798 5798 5797 5797 5797 5797 5797 5797 5797 5796 5796 5796 5796 5796 5795 5796 5796 5796 5796 5796 5795 5795 5795 5795 5794 5794 5793 5793 5793 5792 5792 5792 5791 5791 5791 5791 5791 5791
5794 5794 5794 5794 5793 5793 5792 5792 5791 5791 5791 5791 5791 5791 5790 5790 5789 5788 5788 5788 5788 5788 5788 5789 5789 5788 5788 5787 5787 5787 5786 5786 5785 5785 5784 5784 5784 5783 5783 5783 5783 5783 5783
5789 5788 5788 5788 5787 5787 5787 5786 5785 5785 5785 5784 5784 5784 5783 5783 5782 5781 5781 5780 5780 5780 5780 5780 5780 5780 5780 5779 5779 5779 5778 5778 5777 5777 5776 5776 5775 5775 5775 5775 5775 5775 5775
5782 5782 5782 5782 5781 5781 5780 5780 5779 5779 5779 5778 5777 5776 5776 5775 5774 5773 5773 5772 5772 5771 5771 5771 5771 5771 5771 5770 5770 5770 5770 5769 5769 5768 5768 5767 5767 5767 5767 5767 5767 5766 5766
5776 5776 5776 5775 5775 5774 5774 5773 5773 5772 5772 5771 5770 5768 5767 5767 5766 5765 5764 5763 5763 5762 5762 5762 5762 5762 5761 5761 5761 5761 5760 5760 5759 5759 5758 5758 5758 5758 5758 5758 5758 5758 5758
5769 5769 5769 5769 5768 5767 5767 5766 5765 5765 5764 5763 5762 5761 5760 5759 5758 5756 5755 5754 5754 5754 5753 5753 5752 5752 5752 5752 5751 5751 5751 5751 5750 5750 5749 5748 5748 5748 5748 5748 5748 5748 5749
5763 5762 5762 5761 5761 5760 5759 5758 5757 5757 5756 5755 5754 5753 5751 5750 5749 5748 5747 5746 5745 5744 5744 5744 5743 5743 5742 5742 5742 5741 5741 5740 5740 5739 5739 5739 5738 5738 5738 5738 5738 5739 5739
5755 5755 5754 5754 5753 5752 5751 5750 5749 5748 5747 5746 5745 5744 5743 5742 5740 5739 5738 5737 5736 5736 5735 5734 5734 5733 5733 5732 5731 5731 5730 5730 5729 5729 5728 5729 5728 5728 5728 5728 5728 5729 5729
5747 5747 5746 5746 5745 5744 5743 5741 5740 5740 5739 5737 5736 5735 5734 5733 5731 5730 5729 5728 5727 5727 5725 5725 5724 5723 5722 5722 5721 5721 5720 5719 5719 5719 5718 5718 5718 5718 5718 5718 5718 5718 5719
5739 5739 5738 5737 5736 5735 5734 5732 5731 5730 5730 5729 5727 5726 5725 5723 5722 5721 5720 5719 5718 5717 5715 5715 5714 5713 5712 5711 5710 5709 5709 5708 5708 5708 5707 5706 5706 5706 5707 5707 5707 5707 5708